sat.trackr.live / text

‹ back to catalog

STARLINK-37004

NORAD 68089 · 2026-042W

PAYLOAD ACTIVE UNKNOWN

§ Identity

Operator
Country
US
Launch date
2026-03-04
Launch site
AFETR
Launch vehicle
Mass (kg)
RCS (m²)

Purposes: comms

External: N2YO · Heavens-Above · Gunter

§ Orbital elements

Epoch: 2026-09-19T18:32:51.319680Z

Period
93.85 min
Inclination
53.1605°
Eccentricity
0.0001277
Mean motion
15.34410636 rev/d
Perigee alt
461.8 km
Apogee alt
463.5 km
Semi-major
6,840.8 km
B*
4.8981e-4
RAAN
353.4372°
Arg perigee
84.5485°
Mean anomaly
275.5663°
Rev number
3,207

§ Raw data

STARLINK-370041 68089U 26042W   26262.77281620  .00016214  00000+0  48981-3 0  99922 68089  53.1605 353.4372 0001277  84.5485 275.5663 15.34410636 32070

JSON: /api/v1/satellites/68089 · /tle

For live sub-satellite position, see the globe view (requires WebGL).

§ Visibility from observer

Set your observer location to see the next 7 days of passes ≥ 10°. The values pass through the URL so the page stays shareable.

No JS? Fill the form by hand. The geolocation button needs JavaScript.